Amarillo, TX

9:24 AM CDT on August 25, 2016 (GMT -0500)
Amarillo International

Weather History for KAMA - January, 2014

Change the Weather History Date:

Tuesday, January 28, 2014

  Actual Average Record
Temperature  
Mean Temperature 19 °F 38 °F  
Max Temperature 33 °F 52 °F 76 °F (2002)
Min Temperature 4 °F 24 °F -2 °F (1966)
Degree Days  
Heating Degree Days 46 27  
Month to date heating degree days 778 787  
Since 1 July heating degree days 2519 2504  
Cooling Degree Days 0 0  
Month to date cooling degree days 0 0  
Year to date cooling degree days 0 0  
Moisture  
Dew Point -4 °F    
Average Humidity 36    
Maximum Humidity 50    
Minimum Humidity 22    
Precipitation  
Precipitation 0.00 in 0.03 in 1.06 in (1895)
Month to date precipitation 0.03 0.64  
Year to date precipitation 0.03 0.64  
Snow  
Snow 0.00 in 0.20 in 12.00 in (1895)
Month to date snowfall 0.9 4.1  
Since 1 July snowfall 7.4 10.5  
Snow Depth 0.00 in    
Sea Level Pressure  
Sea Level Pressure 30.40 in    
Wind  
Wind Speed 7 mph (NW)    
Max Wind Speed 14 mph    
Max Gust Speed 17 mph    
Visibility 10 miles    
Events      
T = Trace of Precipitation, MM = Missing Value Source: NWS Daily Summary

Daily Weather History Graph

Daily Weather History Graph

Search for Another Location

Airport or City:

Trip Planner

Search our weather history database for the weather conditions in past years. The results will help you decide how hot, cold, wet, or windy it might be!

Date:

Astronomy

Jan. 28, 2014 Rise Set
Actual Time 7:48 AM CST 6:11 PM CST
Civil Twilight 7:21 AM CST 6:38 PM CST
Nautical Twilight 6:51 AM CST 7:08 PM CST
Astronomical Twilight 6:21 AM CST 7:38 PM CST
Moon 5:30 AM CST (1/28) 4:04 PM CST (1/28)
Length of Visible Light 11h 16m
Length of Day
10h 22m
Waning Crescent, 7% of the Moon is Illuminated
Jan 28
Waning Crescent
Jan 30
New
Feb 6
First Quarter
Feb 14
Full
Feb 22
Last Quarter

Hourly Weather History & Observations

Time (CST) Temp. Windchill Dew Point Humidity Pressure Visibility Wind Dir Wind Speed Gust Speed Precip Events Conditions
12:53 AM 9.0 °F -5.9 °F -9.9 °F 42% 30.38 in 10.0 mi East 11.5 mph - N/A   Clear
1:53 AM 7.0 °F -3.3 °F -9.9 °F 46% 30.39 in 10.0 mi East 5.8 mph - N/A   Clear
2:53 AM 8.1 °F -0.5 °F -8.0 °F 48% 30.39 in 10.0 mi NE 4.6 mph - N/A   Overcast
3:53 AM 10.0 °F 0.4 °F -8.0 °F 44% 30.37 in 10.0 mi ENE 5.8 mph - N/A   Overcast
4:53 AM 10.9 °F 2.9 °F -7.1 °F 44% 30.38 in 10.0 mi North 4.6 mph - N/A   Overcast
5:53 AM 10.9 °F 0.2 °F -6.0 °F 47% 30.42 in 10.0 mi NNW 6.9 mph - N/A   Overcast
6:53 AM 12.0 °F 0.5 °F -6.0 °F 44% 30.45 in 10.0 mi NNW 8.1 mph - N/A   Overcast
7:53 AM 12.9 °F 2.6 °F -5.1 °F 45% 30.47 in 10.0 mi NNW 6.9 mph - N/A   Overcast
8:53 AM 14.0 °F 3.9 °F -6.0 °F 41% 30.49 in 10.0 mi NW 6.9 mph - N/A   Clear
9:53 AM 18.0 °F 7.7 °F -2.9 °F 40% 30.51 in 10.0 mi NW 8.1 mph - N/A   Clear
10:53 AM 21.0 °F 10.6 °F -4.0 °F 33% 30.51 in 10.0 mi NW 9.2 mph - N/A   Clear
11:53 AM 24.1 °F 13.7 °F -5.1 °F 28% 30.49 in 10.0 mi WNW 10.4 mph - N/A   Clear
12:53 PM 26.1 °F 16.2 °F -4.0 °F 27% 30.45 in 10.0 mi NNW 10.4 mph 17.3 mph N/A   Clear
1:53 PM 30.0 °F 22.4 °F -2.9 °F 24% 30.40 in 10.0 mi NW 8.1 mph - N/A   Clear
2:53 PM 30.9 °F 26.2 °F -0.9 °F 26% 30.37 in 10.0 mi NNW 4.6 mph - N/A   Clear
3:53 PM 32.0 °F 28.7 °F -0.9 °F 24% 30.35 in 10.0 mi Variable 3.5 mph - N/A   Clear
4:53 PM 33.1 °F 30.0 °F -2.0 °F 22% 30.35 in 10.0 mi Variable 3.5 mph - N/A   Clear
5:05 PM 30.9 °F 26.2 °F -2.0 °F 24% 30.26 in 10.0 mi Variable 4.6 mph - N/A   Clear
5:53 PM 30.0 °F 26.5 °F -2.0 °F 25% 30.36 in 10.0 mi West 3.5 mph - N/A   Clear
6:53 PM 28.0 °F 24.2 °F -2.0 °F 27% 30.37 in 10.0 mi SSW 3.5 mph - N/A   Clear
7:53 PM 27.0 °F 21.6 °F -2.0 °F 29% 30.37 in 10.0 mi South 4.6 mph - N/A   Clear
8:53 PM 19.0 °F 9.0 °F -4.0 °F 36% 30.39 in 10.0 mi South 8.1 mph - N/A   Clear
9:53 PM 19.0 °F 7.5 °F -2.9 °F 38% 30.37 in 10.0 mi SSW 10.4 mph - N/A   Clear
10:53 PM 16.0 °F 3.6 °F -2.0 °F 45% 30.37 in 10.0 mi SSW 10.4 mph - N/A   Clear
11:53 PM 17.1 °F 5.0 °F -2.0 °F 43% 30.33 in 10.0 mi SW 10.4 mph - N/A   Clear